FENGYUN 1C DEB

Satellite information

Favourite Embed

Satellite Type and Status

DEBRISIN ORBIT

Key statistics

Satellite FENGYUN 1C DEB at a glance.

Uptime

9714

Days in orbit

Revolutions

≈ 14.3

Per day

Orbit

SSO

Sun Synchronous Orbit

Inclination

98.5

Latest

Satellite identification and parameters

Extended collection of information and parameters for FENGYUN 1C DEB.

Object identification

Identified? True

Debris? True

Object name: FENGYUN 1C DEB

International designator: 1999-025CAY

Object number (NORAD): 31642

Object ID (CCSDS): 31642

Country: PEOPLES REPUBLIC OF CHINA (PRC)

Current information (Y/N): Y

RCS size: SMALL

Orbital parameters

Period: 100.461 minutes

Inclination: 98.5047 deg

SMA: 7158.552 km

Apoapsis: 865.64 km

Periapsis: 695.194 km

RAAN: 66.4257 deg

Eccentricy: 0.01190506

Argument of periapsis: 264.0757 deg

Mean anomaly: 94.6849 deg

Mean motion: 14.3339208 rev/day

Mean motion (dot): 0.00001581 rev/day2

B* drag term: 0.00054505529 1/REarth

Two-line elements (TLE)

Creation date: Dec. 10, 2025, 10:40 a.m.

Reference frame: TEME

Reference center: EARTH

Epoch: Dec. 10, 2025, 4:23 a.m. UTC

TLE line 0: 0 FENGYUN 1C DEB

TLE line 1: 1 31642U 99025CAY 25344.18298022 .00001581 00000-0 54506-3 0 9999

TLE line 2: 2 31642 98.5047 66.4257 0119051 264.0757 94.6849 14.33392080969826

Live tracking on map

Real-time ground track for satellite FENGYUN 1C DEB.

In-orbit conjunctions

A list of the most updated potential collisions computed for object FENGYUN 1C DEB.

Target Orbit TCA Probability of collision Miss distance Type
COSMOS 1275 DEB LEO 2025-05-15 09:03:40 0.00023722 60.0 (m) DEBRIS
CZ-6A DEB LEO 2025-02-26 13:12:18 0.0002092287 123.0 (m) DEBRIS
CZ-6A DEB LEO 2025-02-05 22:40:22 0.0001216841 868.0 (m) DEBRIS
METEOR 2-7 DEB LEO 2024-10-20 21:47:58 0.0001231426 25.0 (m) DEBRIS

Associated space launch

Chinese polar orbiting meteorological satellite

FENGYUN 1C DEB was lifted into orbit during the mission ‘Long March 4B | Feng Yun 1C’, on board a Long March 4B space rocket.

The launch took place on May 10, 1999, 1:33 a.m. from Launch Complex 7.

For more information about the launch, click the button.

Launch to space Long March 4B | Feng Yun 1C
Long March 4B | Feng Yun 1C

Agency: N/A

Status: Launch Successful

Launch date: May 10, 1999, 1:33 a.m. UTC

Rocket: Long March 4B

Launch pad: Launch Complex 7

Location: Taiyuan Satellite Launch Center, People's Republic of China

...

Latest news about this satellite

There are no fresh news available about this satellite. Check back as we update our databases every day.


Newsletter sign-up

Weekly statistics, charts and insights to help you stay on top of the space industry.